QPF
0.00 0.00 0.00 0.00 0.00 0.00 0.00 0.00 0.00 0.00 0.00 0.00 0.00 0.00 0.00 0.00 0.00 0.00 0.00 0.00 0.00 0.00 0.00 0.00 0.00 0.00 0.00 0.00 0.00 0.00 0.00 0.00 0.00 0.00 0.00 0.00 0.00 0.00 0.00 0.00 0.00 0.00 0.00
0.00 0.00 0.00 0.00 0.00 0.00 0.00 0.00 0.00 0.00 0.00 0.00 0.00 0.00 0.00 0.00 0.00 0.00 0.00 0.00 0.00 0.00 0.00 0.00 0.00 0.00 0.00 0.00 0.00 0.00 0.00 0.00 0.00 0.00 0.00 0.00 0.00 0.00 0.00 0.00 0.00 0.00 0.00
0.00 0.00 0.00 0.00 0.00 0.00 0.00 0.00 0.00 0.00 0.00 0.00 0.00 0.00 0.00 0.00 0.00 0.00 0.00 0.00 0.00 0.00 0.00 0.00 0.00 0.00 0.00 0.00 0.00 0.00 0.00 0.00 0.00 0.00 0.00 0.00 0.00 0.00 0.00 0.00 0.00 0.00 0.00
0.00 0.00 0.00 0.00 0.00 0.00 0.00 0.00 0.00 0.00 0.00 0.00 0.00 0.00 0.00 0.00 0.00 0.00 0.00 0.00 0.00 0.00 0.00 0.00 0.00 0.00 0.00 0.00 0.00 0.00 0.00 0.00 0.00 0.00 0.00 0.00 0.00 0.01 0.00 0.00 0.00 0.00 0.00
0.00 0.00 0.00 0.00 0.00 0.00 0.00 0.00 0.00 0.00 0.00 0.00 0.00 0.00 0.00 0.00 0.00 0.00 0.00 0.00 0.00 0.00 0.00 0.00 0.00 0.00 0.00 0.00 0.00 0.00 0.00 0.00 0.00 0.00 0.00 0.00 0.00 0.00 0.00 0.00 0.00 0.00 0.00
0.00 0.00 0.00 0.00 0.00 0.00 0.00 0.00 0.00 0.00 0.00 0.00 0.00 0.00 0.00 0.00 0.00 0.00 0.00 0.00 0.00 0.00 0.00 0.00 0.00 0.00 0.00 0.00 0.00 0.00 0.00 0.00 0.00 0.00 0.00 0.00 0.00 0.00 0.00 0.00 0.00 0.00 0.00
0.00 0.00 0.00 0.00 0.00 0.00 0.00 0.00 0.00 0.00 0.00 0.00 0.00 0.00 0.00 0.00 0.00 0.00 0.00 0.00 0.00 0.00 0.00 0.00 0.00 0.00 0.00 0.00 0.00 0.00 0.00 0.00 0.00 0.00 0.00 0.00 0.00 0.00 0.00 0.00 0.00 0.00 0.00
0.00 0.00 0.00 0.00 0.00 0.00 0.00 0.00 0.00 0.00 0.00 0.00 0.00 0.00 0.00 0.00 0.00 0.00 0.00 0.00 0.00 0.00 0.00 0.00 0.00 0.00 0.00 0.00 0.00 0.00 0.00 0.00 0.00 0.00 0.00 0.00 0.00 0.00 0.00 0.00 0.00 0.00 0.00
0.00 0.00 0.00 0.00 0.00 0.00 0.00 0.00 0.00 0.00 0.00 0.00 0.00 0.00 0.00 0.00 0.00 0.00 0.00 0.00 0.00 0.00 0.00 0.00 0.00 0.00 0.00 0.00 0.00 0.00 0.00 0.00 0.00 0.00 0.00 0.00 0.00 0.00 0.00 0.00 0.00 0.00 0.00
0.00 0.00 0.00 0.00 0.00 0.00 0.00 0.00 0.00 0.00 0.00 0.00 0.00 0.00 0.00 0.00 0.00 0.00 0.00 0.00 0.00 0.00 0.00 0.00 0.00 0.00 0.00 0.00 0.00 0.00 0.00 0.00 0.00 0.00 0.00 0.00 0.00 0.00 0.00 0.00 0.00 0.00 0.00
0.00 0.00 0.00 0.00 0.00 0.00 0.00 0.00 0.00 0.00 0.00 0.00 0.00 0.00 0.00 0.00 0.00 0.00 0.00 0.00 0.00 0.00 0.00 0.00 0.00 0.00 0.00 0.00 0.00 0.00 0.00 0.00 0.00 0.00 0.00 0.00 0.00 0.00 0.00 0.00 0.00 0.00 0.00
0.00 0.00 0.00 0.00 0.00 0.00 0.00 0.00 0.00 0.00 0.00 0.00 0.00 0.00 0.00 0.00 0.00 0.00 0.00 0.00 0.00 0.00 0.00 0.00 0.00 0.00 0.00 0.00 0.00 0.00 0.00 0.00 0.00 0.00 0.00 0.00 0.00 0.00 0.00 0.00 0.00 0.00 0.00
0.05 0.03 0.00 0.00 0.00 0.00 0.00 0.00 0.00 0.00 0.00 0.00 0.00 0.00 0.00 0.00 0.00 0.00 0.00 0.00 0.00 0.00 0.00 0.00 0.00 0.00 0.00 0.00 0.00 0.00 0.00 0.00 0.00 0.00 0.00 0.00 0.00 0.00 0.00 0.00 0.00 0.00 0.00
0.02 0.08 0.06 0.04 0.01 0.00 0.00 0.00 0.00 0.00 0.00 0.00 0.00 0.00 0.00 0.00 0.00 0.00 0.00 0.00 0.00 0.00 0.00 0.00 0.00 0.00 0.00 0.00 0.00 0.00 0.00 0.00 0.00 0.00 0.00 0.00 0.00 0.00 0.00 0.00 0.00 0.00 0.00
0.04 0.01 0.01 0.04 0.06 0.02 0.00 0.00 0.00 0.00 0.00 0.00 0.00 0.00 0.00 0.00 0.00 0.00 0.00 0.00 0.00 0.00 0.00 0.00 0.00 0.00 0.00 0.00 0.00 0.00 0.00 0.00 0.00 0.00 0.00 0.00 0.00 0.00 0.00 0.00 0.00 0.00 0.00
0.00 0.01 0.02 0.03 0.04 0.08 0.04 0.01 0.00 0.00 0.00 0.00 0.00 0.00 0.00 0.00 0.00 0.00 0.00 0.00 0.00 0.00 0.00 0.00 0.00 0.00 0.00 0.00 0.00 0.00 0.00 0.00 0.00 0.00 0.00 0.00 0.00 0.00 0.00 0.00 0.00 0.00 0.00
0.00 0.00 0.00 0.05 0.08 0.06 0.09 0.02 0.01 0.04 0.01 0.00 0.00 0.00 0.00 0.00 0.00 0.00 0.00 0.00 0.00 0.00 0.00 0.00 0.00 0.00 0.00 0.00 0.00 0.00 0.00 0.00 0.00 0.00 0.00 0.00 0.00 0.00 0.00 0.00 0.00 0.00 0.00
0.00 0.00 0.00 0.00 0.01 0.06 0.14 0.09 0.04 0.02 0.06 0.02 0.00 0.00 0.00 0.00 0.00 0.00 0.00 0.00 0.00 0.00 0.00 0.00 0.00 0.00 0.00 0.00 0.00 0.00 0.00 0.00 0.00 0.00 0.00 0.00 0.00 0.00 0.00 0.00 0.00 0.00 0.00
0.00 0.00 0.00 0.00 0.00 0.00 0.02 0.06 0.09 0.06 0.04 0.07 0.02 0.00 0.00 0.00 0.00 0.00 0.00 0.00 0.00 0.00 0.00 0.00 0.00 0.00 0.00 0.00 0.00 0.00 0.00 0.00 0.00 0.00 0.00 0.00 0.00 0.00 0.00 0.00 0.00 0.00 0.00
0.00 0.00 0.00 0.00 0.00 0.00 0.01 0.01 0.04 0.09 0.08 0.10 0.07 0.00 0.00 0.00 0.00 0.00 0.00 0.00 0.00 0.00 0.00 0.00 0.00 0.00 0.00 0.00 0.00 0.00 0.00 0.00 0.00 0.00 0.00 0.00 0.00 0.00 0.00 0.00 0.00 0.00 0.00
0.00 0.00 0.00 0.00 0.00 0.00 0.00 0.01 0.03 0.03 0.05 0.08 0.05 0.02 0.01 0.00 0.00 0.00 0.00 0.00 0.00 0.00 0.00 0.00 0.00 0.00 0.00 0.00 0.00 0.00 0.00 0.00 0.00 0.00 0.00 0.00 0.00 0.00 0.00 0.00 0.00 0.00 0.00
0.00 0.00 0.00 0.00 0.00 0.00 0.00 0.00 0.01 0.03 0.05 0.07 0.11 0.06 0.02 0.01 0.01 0.00 0.00 0.00 0.00 0.00 0.00 0.00 0.00 0.00 0.00 0.00 0.00 0.00 0.00 0.00 0.00 0.00 0.00 0.00 0.00 0.00 0.00 0.00 0.00 0.00 0.00
0.00 0.00 0.00 0.00 0.00 0.00 0.00 0.00 0.00 0.01 0.03 0.06 0.11 0.11 0.10 0.05 0.02 0.00 0.00 0.01 0.00 0.00 0.00 0.00 0.00 0.00 0.00 0.00 0.00 0.00 0.00 0.00 0.00 0.00 0.00 0.00 0.00 0.00 0.00 0.00 0.00 0.00 0.00
0.00 0.00 0.00 0.00 0.00 0.00 0.00 0.00 0.00 0.00 0.01 0.05 0.06 0.07 0.18 0.20 0.15 0.03 0.01 0.01 0.02 0.01 0.00 0.00 0.00 0.00 0.00 0.00 0.00 0.00 0.00 0.00 0.00 0.00 0.00 0.00 0.00 0.00 0.00 0.00 0.00 0.00 0.00
0.00 0.00 0.00 0.00 0.00 0.00 0.00 0.00 0.00 0.00 0.00 0.01 0.05 0.06 0.12 0.45 0.43 0.12 0.05 0.06 0.04 0.03 0.01 0.01 0.00 0.00 0.00 0.00 0.00 0.00 0.00 0.00 0.00 0.00 0.00 0.00 0.00 0.00 0.00 0.00 0.00 0.00 0.00
0.00 0.00 0.00 0.00 0.00 0.00 0.00 0.00 0.00 0.00 0.00 0.00 0.00 0.02 0.05 0.22 0.77 1.05 0.47 0.17 0.04 0.02 0.01 0.01 0.00 0.00 0.00 0.00 0.00 0.00 0.00 0.00 0.00 0.00 0.00 0.00 0.00 0.00 0.00 0.00 0.00 0.00 0.00
MSLP
1014.13 1015.91 1016.81 1017.12 1017.42 1017.64 1017.65 1017.72 1018.06 1018.37 1018.69 1018.89 1018.86 1018.91 1019.14 1019.31 1019.34 1019.40 1019.48 1019.61 1019.70 1019.81 1019.92 1020.14 1020.27 1020.30 1020.39 1020.50 1020.64 1020.69 1020.72 1020.79 1020.85 1020.87 1020.90 1020.99 1021.05 1021.07 1021.02 1020.91 1020.79 1020.96 1021.38
1014.67 1016.20 1017.15 1017.48 1017.92 1018.10 1018.16 1018.22 1018.51 1018.79 1019.00 1019.23 1019.22 1019.31 1019.57 1019.77 1019.81 1019.80 1019.82 1019.95 1020.01 1020.14 1020.29 1020.46 1020.60 1020.78 1020.94 1021.04 1021.05 1021.09 1021.19 1021.25 1021.30 1021.34 1021.31 1021.37 1021.47 1021.52 1021.58 1021.58 1021.48 1021.78 1021.88
1015.42 1016.52 1017.13 1017.76 1018.32 1018.50 1018.59 1018.69 1018.93 1019.21 1019.39 1019.54 1019.70 1019.78 1019.97 1020.15 1020.21 1020.17 1020.22 1020.35 1020.48 1020.55 1020.61 1020.75 1020.98 1021.24 1021.45 1021.54 1021.53 1021.57 1021.64 1021.69 1021.61 1021.47 1021.09 1020.99 1021.69 1022.11 1022.24 1022.31 1022.30 1022.29 1022.33
1015.84 1016.46 1017.22 1018.06 1018.66 1018.87 1018.96 1019.14 1019.41 1019.59 1019.83 1019.81 1020.02 1020.18 1020.30 1020.43 1020.50 1020.52 1020.56 1020.80 1020.95 1020.92 1020.99 1021.19 1021.43 1021.73 1021.89 1021.95 1022.07 1022.17 1022.16 1022.07 1021.78 1021.30 1020.68 1021.51 1022.02 1022.69 1022.66 1022.72 1022.76 1022.77 1022.79
1016.15 1016.59 1017.97 1018.41 1019.02 1019.32 1019.51 1019.62 1019.82 1020.09 1020.17 1020.14 1020.34 1020.57 1020.66 1020.75 1020.83 1020.95 1020.98 1021.12 1021.34 1021.33 1021.51 1021.74 1021.92 1022.13 1022.26 1022.39 1022.53 1022.68 1022.61 1022.36 1021.96 1021.20 1021.48 1022.17 1022.20 1023.17 1023.15 1023.13 1023.19 1023.16 1023.08
1016.57 1017.07 1018.67 1018.86 1019.34 1019.82 1019.98 1020.06 1020.25 1020.34 1020.60 1020.71 1020.74 1020.96 1021.04 1021.11 1021.18 1021.31 1021.41 1021.51 1021.75 1021.91 1022.02 1022.17 1022.32 1022.44 1022.62 1022.77 1022.91 1023.09 1022.95 1022.64 1021.98 1021.75 1022.24 1022.71 1022.93 1023.60 1023.68 1023.67 1023.81 1023.87 1023.90
1017.28 1017.93 1018.93 1019.42 1019.61 1020.09 1020.39 1020.38 1020.56 1020.80 1020.97 1021.24 1021.38 1021.37 1021.50 1021.55 1021.63 1021.65 1021.79 1021.88 1022.07 1022.26 1022.45 1022.56 1022.70 1022.79 1022.94 1023.15 1023.27 1023.36 1023.27 1022.95 1022.02 1022.29 1022.64 1022.89 1023.74 1024.00 1024.09 1024.21 1024.36 1024.42 1024.48
1018.06 1018.55 1019.30 1019.97 1020.05 1020.36 1020.74 1020.78 1020.87 1021.17 1021.43 1021.55 1021.81 1021.93 1021.92 1022.06 1022.08 1022.11 1022.19 1022.29 1022.40 1022.63 1022.75 1022.79 1022.94 1023.09 1023.18 1023.39 1023.60 1023.69 1023.60 1023.21 1022.89 1023.04 1023.44 1023.80 1024.39 1024.47 1024.58 1024.66 1024.75 1024.89 1024.96
1018.64 1018.96 1019.47 1019.83 1020.53 1020.97 1021.23 1021.40 1021.36 1021.49 1021.76 1021.95 1022.08 1022.32 1022.43 1022.47 1022.53 1022.52 1022.63 1022.73 1022.77 1022.86 1023.01 1023.13 1023.24 1023.38 1023.46 1023.67 1023.95 1024.03 1023.91 1023.56 1022.95 1023.44 1024.07 1024.27 1024.82 1024.83 1024.86 1024.85 1024.97 1025.17 1025.37
1019.03 1019.32 1019.47 1019.81 1020.36 1020.86 1021.40 1021.89 1021.95 1022.02 1022.17 1022.32 1022.48 1022.64 1022.82 1022.90 1022.95 1022.99 1022.97 1023.08 1023.19 1023.26 1023.24 1023.41 1023.58 1023.70 1023.83 1024.10 1024.29 1024.32 1024.15 1023.71 1023.00 1023.23 1023.94 1024.71 1025.14 1025.11 1025.17 1025.16 1025.37 1025.57 1025.72
1019.59 1019.68 1019.85 1019.92 1020.22 1020.59 1020.94 1021.79 1022.31 1022.50 1022.60 1022.71 1022.77 1022.94 1023.06 1022.47 1022.89 1023.09 1022.87 1023.33 1023.44 1023.55 1023.66 1023.75 1023.89 1024.09 1024.30 1024.55 1024.70 1024.61 1024.16 1022.90 1023.10 1023.05 1023.55 1025.13 1025.24 1025.29 1025.51 1025.63 1025.77 1025.99 1026.16
1019.93 1020.04 1019.94 1020.24 1020.41 1020.71 1020.62 1021.32 1021.56 1021.93 1022.10 1022.15 1022.28 1022.64 1022.10 1022.32 1022.43 1022.46 1023.09 1023.67 1023.72 1023.79 1023.89 1024.04 1024.19 1024.34 1024.25 1023.74 1024.32 1024.73 1023.13 1023.33 1023.25 1023.32 1023.78 1025.24 1025.39 1025.49 1025.75 1026.02 1026.18 1026.33 1026.52
1020.36 1020.17 1020.64 1020.70 1020.62 1020.66 1020.48 1020.90 1020.92 1021.18 1021.44 1021.84 1022.08 1022.30 1022.00 1022.33 1022.66 1022.70 1022.92 1023.40 1023.37 1023.82 1023.40 1023.89 1024.13 1023.48 1022.95 1022.98 1023.43 1023.41 1023.49 1023.64 1023.32 1023.40 1024.65 1025.35 1025.50 1025.66 1025.89 1026.18 1026.37 1026.55 1026.73
1022.19 1022.14 1021.44 1020.69 1020.69 1021.32 1020.32 1020.72 1020.58 1020.66 1021.05 1021.29 1021.78 1022.17 1022.12 1022.24 1022.37 1022.34 1022.37 1022.65 1022.97 1023.06 1022.69 1022.88 1022.88 1022.78 1023.18 1023.20 1023.33 1023.58 1023.65 1023.33 1023.42 1023.56 1024.82 1025.55 1025.68 1025.78 1025.95 1026.22 1026.45 1026.66 1026.86
1022.51 1022.56 1022.56 1022.09 1021.90 1020.81 1020.80 1020.33 1020.40 1020.46 1020.77 1020.91 1021.31 1021.90 1021.83 1021.88 1022.12 1022.20 1022.30 1022.44 1022.57 1022.63 1022.74 1022.73 1022.51 1022.92 1023.02 1023.12 1023.26 1023.38 1023.58 1023.59 1023.73 1023.54 1023.96 1025.58 1025.81 1025.90 1026.02 1026.21 1026.42 1026.73 1026.89
1023.41 1023.32 1022.98 1022.54 1022.50 1021.70 1020.61 1020.70 1020.50 1020.48 1020.31 1020.79 1020.98 1021.24 1021.90 1021.73 1021.87 1022.06 1022.18 1022.46 1022.43 1022.52 1022.65 1022.72 1022.64 1022.67 1022.73 1022.67 1023.02 1023.15 1023.25 1023.39 1023.68 1023.79 1023.67 1025.02 1025.80 1025.98 1026.10 1026.23 1026.44 1026.63 1026.83
1024.06 1024.01 1023.42 1022.73 1022.44 1022.34 1020.60 1020.12 1020.55 1020.67 1020.41 1020.49 1020.49 1020.97 1021.39 1021.67 1021.68 1021.89 1021.91 1022.06 1022.14 1022.40 1022.70 1022.94 1023.01 1022.97 1022.62 1022.80 1022.69 1022.96 1023.01 1023.21 1023.27 1023.65 1023.72 1023.85 1025.16 1025.92 1026.09 1026.23 1026.48 1026.65 1026.81
1024.68 1024.28 1023.75 1023.13 1022.57 1022.39 1022.19 1021.16 1020.28 1020.13 1020.48 1020.10 1020.42 1020.54 1021.03 1021.25 1021.43 1021.72 1021.50 1021.59 1021.77 1022.05 1022.45 1022.58 1022.64 1022.71 1022.79 1022.70 1022.62 1022.56 1022.64 1022.68 1023.04 1023.34 1023.51 1023.61 1023.84 1024.41 1025.81 1026.11 1026.35 1026.50 1026.66
1025.18 1024.87 1024.23 1023.50 1022.94 1022.50 1022.29 1021.67 1020.55 1020.19 1020.11 1020.10 1020.06 1020.37 1020.77 1020.97 1021.03 1021.22 1020.99 1021.06 1021.53 1021.56 1021.78 1021.98 1022.21 1022.30 1022.28 1022.46 1022.41 1022.42 1022.33 1022.28 1022.50 1022.68 1022.96 1023.41 1023.56 1023.73 1023.92 1025.35 1025.99 1026.26 1026.43
1025.71 1025.27 1024.75 1024.15 1023.66 1022.87 1022.70 1022.19 1021.08 1020.17 1020.03 1019.87 1019.84 1019.93 1020.48 1020.75 1020.74 1020.82 1020.60 1020.64 1020.95 1020.95 1021.11 1021.46 1021.72 1021.90 1022.02 1021.96 1021.91 1021.89 1022.08 1022.09 1022.07 1022.22 1022.50 1022.80 1023.11 1023.52 1023.66 1023.82 1025.16 1025.52 1026.08
1026.12 1025.67 1025.13 1024.51 1024.01 1023.28 1022.48 1022.44 1021.76 1021.38 1020.95 1020.02 1019.59 1019.65 1020.02 1020.32 1020.35 1020.43 1020.27 1020.12 1020.46 1020.34 1020.41 1020.88 1021.41 1021.72 1021.78 1021.95 1021.90 1021.63 1021.54 1021.90 1022.03 1021.87 1021.98 1022.15 1022.41 1022.90 1023.20 1023.42 1023.69 1023.94 1024.81
1026.32 1026.24 1025.64 1025.03 1024.54 1024.02 1023.42 1022.66 1022.76 1022.16 1021.23 1020.45 1019.49 1019.47 1019.47 1019.64 1019.85 1019.80 1019.86 1019.52 1019.62 1019.89 1020.09 1020.36 1020.81 1021.03 1021.23 1021.51 1021.48 1021.14 1020.75 1020.88 1021.19 1021.44 1021.34 1021.59 1021.79 1022.12 1022.49 1022.90 1023.04 1023.14 1023.15
1026.62 1026.48 1026.16 1025.68 1025.02 1024.51 1024.15 1023.00 1022.20 1021.68 1021.03 1020.38 1019.83 1019.47 1018.80 1018.91 1018.97 1019.21 1019.05 1019.26 1019.09 1019.39 1019.39 1019.90 1020.21 1020.38 1020.35 1020.77 1021.17 1020.52 1019.94 1019.49 1019.35 1019.44 1020.64 1020.92 1021.20 1021.48 1021.59 1022.01 1022.40 1022.60 1022.81
1027.16 1026.94 1026.67 1026.13 1025.53 1024.96 1024.54 1023.67 1023.13 1022.17 1021.64 1021.31 1021.18 1020.51 1019.66 1018.28 1018.46 1018.65 1018.68 1018.39 1018.76 1018.88 1019.14 1019.07 1019.51 1019.78 1020.19 1019.71 1020.20 1020.48 1019.77 1019.27 1018.92 1018.73 1019.27 1019.93 1020.59 1020.80 1021.00 1021.03 1021.31 1021.88 1022.16
1027.44 1027.16 1026.93 1026.46 1025.83 1025.41 1024.97 1024.47 1023.78 1022.96 1022.53 1022.21 1021.36 1020.76 1020.17 1019.46 1017.32 1016.46 1017.89 1017.59 1018.41 1018.59 1018.66 1018.97 1018.97 1019.26 1019.27 1019.50 1019.09 1019.48 1019.61 1019.52 1019.55 1019.23 1018.47 1018.73 1019.60 1019.79 1019.97 1020.27 1020.41 1020.78 1021.35
1027.38 1027.14 1026.97 1026.58 1026.06 1025.70 1025.25 1024.85 1024.37 1023.84 1022.96 1022.27 1021.77 1021.09 1020.40 1019.63 1018.92 1017.52 1016.51 1016.50 1017.60 1017.99 1018.16 1018.27 1018.61 1018.77 1019.05 1018.88 1018.89 1018.57 1018.63 1018.70 1018.57 1018.62 1018.51 1018.33 1017.91 1018.36 1019.06 1019.09 1019.44 1019.82 1020.08
Thickness
5777 5763 5755 5751 5746 5741 5738 5736 5732 5729 5725 5722 5722 5720 5718 5716 5716 5715 5715 5713 5712 5711 5711 5710 5709 5709 5710 5710 5708 5708 5708 5707 5705 5704 5703 5701 5699 5698 5698 5697 5697 5695 5692
5774 5761 5754 5750 5744 5740 5736 5734 5731 5728 5726 5722 5720 5718 5716 5714 5714 5713 5712 5711 5710 5710 5711 5710 5710 5709 5709 5709 5709 5708 5707 5706 5704 5703 5702 5701 5700 5698 5697 5696 5695 5692 5691
5769 5759 5754 5749 5742 5738 5734 5732 5729 5726 5723 5721 5718 5716 5714 5712 5711 5711 5711 5709 5709 5710 5711 5711 5710 5709 5708 5708 5708 5707 5705 5704 5704 5704 5706 5705 5699 5697 5695 5693 5692 5692 5690
5764 5759 5753 5748 5741 5737 5733 5729 5725 5723 5720 5719 5716 5714 5713 5711 5710 5711 5711 5709 5708 5710 5711 5711 5710 5708 5708 5708 5706 5704 5703 5703 5705 5708 5710 5703 5698 5694 5694 5693 5691 5690 5689
5761 5757 5747 5745 5738 5734 5730 5726 5723 5720 5718 5718 5716 5713 5712 5711 5710 5709 5710 5709 5707 5709 5709 5709 5709 5708 5708 5706 5704 5702 5702 5703 5705 5709 5706 5700 5699 5692 5691 5691 5690 5689 5689
5756 5752 5742 5740 5736 5730 5727 5724 5721 5719 5716 5715 5715 5712 5711 5710 5709 5709 5708 5708 5706 5706 5707 5708 5708 5708 5707 5705 5703 5701 5700 5701 5705 5705 5701 5698 5695 5690 5689 5689 5687 5686 5685
5749 5744 5736 5734 5733 5728 5725 5724 5721 5718 5715 5712 5710 5710 5709 5708 5708 5708 5707 5707 5706 5706 5706 5707 5707 5708 5706 5704 5703 5700 5699 5701 5705 5703 5700 5697 5690 5688 5687 5686 5684 5682 5682
5742 5737 5732 5729 5728 5725 5723 5721 5720 5717 5713 5710 5708 5707 5707 5706 5706 5706 5706 5705 5705 5705 5706 5707 5707 5707 5706 5704 5701 5699 5698 5700 5701 5699 5695 5692 5688 5686 5685 5684 5682 5681 5679
5737 5734 5729 5726 5722 5719 5717 5716 5716 5715 5712 5709 5707 5705 5705 5705 5704 5704 5703 5703 5703 5705 5705 5705 5705 5705 5704 5702 5700 5698 5698 5699 5701 5696 5691 5689 5685 5684 5684 5683 5682 5680 5678
5731 5730 5728 5725 5721 5717 5713 5711 5710 5710 5709 5707 5705 5703 5702 5702 5702 5701 5701 5701 5702 5702 5703 5703 5703 5703 5702 5700 5698 5697 5696 5698 5700 5698 5692 5686 5683 5682 5682 5681 5680 5677 5676
5724 5724 5723 5722 5720 5718 5715 5709 5706 5705 5704 5704 5703 5701 5700 5702 5701 5701 5702 5700 5701 5701 5701 5701 5700 5700 5698 5696 5695 5695 5697 5702 5700 5699 5695 5685 5682 5681 5679 5678 5677 5674 5672
5715 5717 5718 5716 5715 5714 5715 5711 5708 5705 5703 5704 5703 5701 5704 5703 5702 5704 5701 5699 5699 5699 5699 5699 5698 5697 5697 5698 5694 5693 5701 5699 5699 5698 5694 5684 5681 5680 5677 5675 5673 5671 5670
5709 5710 5708 5708 5710 5711 5712 5711 5711 5710 5707 5703 5702 5701 5704 5702 5700 5700 5700 5697 5698 5697 5699 5696 5695 5699 5703 5702 5698 5698 5698 5697 5698 5697 5689 5683 5681 5678 5675 5673 5671 5669 5668
5688 5690 5697 5703 5705 5703 5710 5708 5710 5710 5708 5707 5702 5700 5701 5701 5701 5701 5701 5700 5699 5699 5702 5701 5701 5702 5699 5699 5698 5696 5696 5698 5697 5695 5687 5682 5679 5677 5674 5672 5670 5667 5666
5679 5681 5685 5690 5692 5700 5703 5708 5708 5708 5706 5706 5704 5699 5701 5701 5700 5700 5699 5699 5699 5699 5699 5700 5702 5699 5699 5698 5697 5696 5694 5695 5694 5694 5691 5681 5678 5675 5674 5671 5669 5666 5665
5665 5668 5675 5681 5682 5689 5697 5699 5703 5704 5705 5703 5703 5701 5697 5699 5699 5698 5698 5696 5696 5697 5696 5697 5698 5698 5699 5700 5697 5696 5696 5694 5692 5691 5692 5682 5677 5674 5672 5670 5667 5666 5664
5652 5655 5663 5671 5675 5680 5692 5696 5697 5697 5700 5701 5702 5700 5698 5696 5697 5695 5696 5696 5695 5694 5693 5692 5693 5694 5697 5696 5698 5696 5695 5694 5693 5691 5690 5688 5679 5674 5671 5669 5666 5664 5663
5638 5643 5651 5657 5665 5671 5676 5685 5692 5695 5695 5699 5697 5698 5697 5695 5695 5693 5695 5695 5695 5694 5691 5691 5691 5692 5693 5695 5696 5696 5696 5695 5693 5690 5689 5687 5685 5680 5672 5669 5666 5664 5662
5626 5628 5635 5644 5652 5659 5665 5674 5683 5687 5691 5692 5694 5694 5693 5693 5694 5693 5696 5695 5693 5694 5693 5692 5690 5690 5692 5692 5694 5694 5695 5695 5694 5692 5690 5686 5685 5683 5681 5673 5668 5665 5663
5610 5615 5620 5627 5634 5643 5648 5658 5670 5679 5684 5686 5688 5690 5688 5688 5691 5691 5694 5695 5693 5694 5694 5692 5690 5689 5689 5691 5693 5695 5694 5693 5694 5693 5691 5688 5685 5682 5680 5679 5670 5668 5665
5591 5597 5604 5611 5617 5627 5638 5641 5651 5658 5666 5677 5682 5683 5684 5684 5686 5687 5690 5692 5691 5694 5694 5692 5688 5687 5686 5687 5685 5688 5692 5691 5690 5692 5691 5690 5688 5683 5681 5679 5677 5676 5671
5573 5575 5582 5591 5598 5606 5614 5625 5628 5640 5653 5661 5671 5674 5677 5679 5681 5683 5686 5690 5691 5691 5691 5690 5688 5686 5685 5685 5681 5684 5682 5689 5691 5691 5692 5690 5689 5686 5683 5680 5679 5678 5679
5556 5557 5560 5567 5577 5585 5593 5604 5617 5628 5641 5650 5656 5661 5671 5673 5675 5677 5683 5682 5685 5686 5689 5687 5685 5685 5684 5684 5682 5685 5682 5684 5695 5701 5693 5692 5691 5688 5686 5683 5680 5679 5678
5535 5536 5538 5544 5551 5561 5570 5583 5592 5606 5618 5628 5634 5642 5654 5668 5667 5667 5672 5677 5676 5678 5680 5685 5682 5683 5679 5685 5684 5685 5692 5695 5689 5687 5696 5694 5691 5689 5688 5687 5685 5681 5680
5517 5517 5518 5522 5530 5536 5544 5556 5568 5582 5593 5602 5618 5628 5637 5644 5657 5663 5663 5668 5664 5666 5671 5671 5675 5676 5680 5678 5686 5683 5683 5686 5687 5684 5687 5692 5691 5693 5691 5689 5689 5687 5682
5498 5500 5502 5502 5508 5515 5523 5531 5542 5553 5569 5583 5594 5610 5621 5629 5636 5654 5658 5665 5655 5655 5662 5666 5667 5670 5670 5674 5677 5682 5684 5682 5685 5684 5682 5687 5693 5694 5693 5694 5693 5690 5688